Angoon, AK

2:29 AM AKST on February 22, 2017 (GMT -0900)
Angoon

Weather History for PAGN - December, 2013

Change the Weather History Date:

Sunday, December 22, 2013

  Actual Average (PASI) Record (PASI)
Temperature  
Mean Temperature 34 °F -  
Max Temperature 37 °F 38 °F 54 °F (1960)
Min Temperature 30 °F 31 °F 10 °F (1971)
Degree Days  
Heating Degree Days 32    
Moisture  
Dew Point 34 °F    
Average Humidity 96    
Maximum Humidity 100    
Minimum Humidity 93    
Precipitation  
Precipitation 0.16 in - - ()
Sea Level Pressure  
Sea Level Pressure 29.55 in    
Wind  
Wind Speed 3 mph (East)    
Max Wind Speed 9 mph    
Max Gust Speed -    
Visibility 8 miles    
Events Rain    
Averages and records for this station are not official NWS values.
T = Trace of Precipitation, MM = Missing Value Source: NWS Daily Summary

Daily Weather History Graph

Daily Weather History Graph

Search for Another Location

Airport or City:

Trip Planner

Search our weather history database for the weather conditions in past years. The results will help you decide how hot, cold, wet, or windy it might be!

Date:

Astronomy

Dec. 22, 2013 Rise Set
Actual Time 8:39 AM AKST 3:14 PM AKST
Civil Twilight 7:48 AM AKST 4:05 PM AKST
Nautical Twilight 6:57 AM AKST 4:57 PM AKST
Astronomical Twilight 6:09 AM AKST 5:45 PM AKST
Moon 9:40 PM AKST 10:38 AM AKST
Length of Visible Light 8h 16m
Length of Day
6h 35m
Waning Gibbous, 75% of the Moon is Illuminated
Dec 22
Waning Gibbous
Dec 25
Last Quarter
Jan 1
New
Jan 7
First Quarter
Jan 15
Full

Hourly Weather History & Observations

Time (AKST) Temp. Windchill Dew Point Humidity Pressure Visibility Wind Dir Wind Speed Gust Speed Precip Events Conditions
12:20 AM 30.2 °F 24.3 °F 28.4 °F 93% 29.78 in 10.0 mi ENE 5.8 mph - 0.00 in   Overcast
12:56 AM 31.1 °F 26.4 °F 30.0 °F 96% 29.77 in 10.0 mi East 4.6 mph - 0.00 in   Overcast
1:37 AM 32.0 °F 25.6 °F 30.2 °F 93% 29.73 in 10.0 mi ENE 6.9 mph - 0.00 in   Overcast
1:56 AM 32.0 °F 25.6 °F 31.1 °F 96% 29.73 in 9.0 mi East 6.9 mph - 0.00 in   Overcast
2:56 AM 33.8 °F 30.8 °F 32.0 °F 93% 29.69 in 3.0 mi Variable 3.5 mph - N/A Rain Rain
3:30 AM 33.8 °F 29.6 °F 33.8 °F 100% 29.67 in 6.0 mi Variable 4.6 mph - 0.01 in Rain Light Rain
3:42 AM 35.6 °F 28.6 °F 33.8 °F 93% 29.65 in 5.0 mi ENE 9.2 mph - 0.02 in Rain Light Rain
3:49 AM 35.6 °F 28.6 °F 33.8 °F 93% 29.65 in 5.0 mi ENE 9.2 mph - 0.02 in Rain Light Rain
3:56 AM 34.9 °F 28.3 °F 34.0 °F 97% 29.65 in 5.0 mi ENE 8.1 mph - 0.02 in   Overcast
4:03 AM 35.6 °F 29.2 °F 33.8 °F 93% 29.64 in 6.0 mi ENE 8.1 mph - 0.01 in Rain Light Rain
4:56 AM 34.9 °F - 34.0 °F 97% 29.61 in 8.0 mi Calm Calm - 0.02 in Rain Light Rain
5:56 AM 35.6 °F - 33.8 °F 93% 29.57 in 10.0 mi Calm Calm - N/A Rain Light Rain
6:11 AM 35.6 °F - 35.6 °F 100% 29.56 in 6.0 mi Calm Calm - 0.00 in Rain Light Rain
6:27 AM 35.6 °F - 33.8 °F 93% 29.56 in 2.5 mi Calm Calm - 0.01 in Rain Light Rain
6:37 AM 35.6 °F - 35.6 °F 100% 29.55 in 3.0 mi Calm Calm - 0.02 in Rain Light Rain
6:45 AM 37.4 °F - 37.4 °F 100% 29.55 in 3.0 mi Calm Calm - 0.02 in Rain Light Rain
6:56 AM 36.9 °F - 36.0 °F 97% 29.55 in 5.0 mi Calm Calm - 0.03 in Rain Light Rain
7:25 AM 37.4 °F 33.8 °F 35.6 °F 93% 29.53 in 10.0 mi Variable 4.6 mph - 0.01 in Rain Light Rain
7:56 AM 36.9 °F 32.2 °F 36.0 °F 97% 29.52 in 9.0 mi ENE 5.8 mph - 0.01 in Rain Light Rain
8:56 AM 37.4 °F 33.8 °F 35.6 °F 93% 29.49 in 10.0 mi ENE 4.6 mph - N/A   Overcast
9:27 AM 37.4 °F 34.9 °F 35.6 °F 93% 29.49 in 3.0 mi Variable 3.5 mph - 0.00 in Rain Light Rain
9:35 AM 37.4 °F - 35.6 °F 93% 29.50 in 2.5 mi Calm Calm - 0.01 in   Overcast
9:48 AM 37.4 °F - 35.6 °F 93% 29.50 in 3.0 mi Calm Calm - 0.03 in Rain Light Rain
9:56 AM 36.9 °F - 36.0 °F 97% 29.50 in 6.0 mi Calm Calm - 0.03 in Rain Light Rain
10:09 AM 37.4 °F 34.9 °F 35.6 °F 93% 29.49 in 6.0 mi ENE 3.5 mph - 0.00 in Rain Light Rain
10:28 AM 37.4 °F - 35.6 °F 93% 29.49 in 3.0 mi Calm Calm - 0.02 in Rain Rain
10:56 AM 36.9 °F - 36.0 °F 97% 29.50 in 5.0 mi Calm Calm - 0.03 in Rain Light Rain
11:25 AM 37.4 °F - 35.6 °F 93% 29.48 in 4.0 mi Calm Calm - 0.01 in Rain Light Rain
11:56 AM 35.6 °F - 35.6 °F 100% 29.48 in 7.0 mi Calm Calm - N/A Rain Light Rain
12:56 PM 36.0 °F - 36.0 °F 100% 29.48 in 10.0 mi Calm Calm - 0.00 in Rain Light Rain
1:17 PM 35.6 °F - 35.6 °F 100% 29.46 in 7.0 mi Calm Calm - 0.01 in Rain Light Rain
1:25 PM 35.6 °F - 35.6 °F 100% 29.46 in 4.0 mi Calm Calm - 0.01 in Rain Light Rain
1:56 PM 36.0 °F - 34.9 °F 96% 29.47 in 10.0 mi Calm Calm - 0.02 in Rain Light Rain
2:56 PM 35.6 °F - 35.6 °F 100% 29.46 in 10.0 mi Calm Calm - N/A   Overcast
3:56 PM 34.9 °F - 34.9 °F 100% 29.48 in 10.0 mi Calm Calm - N/A   Mostly Cloudy
4:24 PM 33.8 °F - 33.8 °F 100% 29.47 in 10.0 mi Calm Calm - N/A   Overcast
4:56 PM 34.0 °F 31.0 °F 34.0 °F 100% 29.49 in 10.0 mi SSE 3.5 mph - N/A   Overcast
5:56 PM 33.8 °F 30.8 °F 33.8 °F 100% 29.48 in 10.0 mi SE 3.5 mph - N/A   Overcast
6:17 PM 33.8 °F - 33.8 °F 100% 29.48 in 10.0 mi Calm Calm - N/A   Overcast
6:56 PM 34.9 °F - 34.0 °F 97% 29.50 in 10.0 mi Calm Calm - N/A   Overcast
7:44 PM 33.8 °F - 33.8 °F 100% 29.50 in 10.0 mi Calm Calm - N/A   Overcast
7:56 PM 34.9 °F - 34.0 °F 97% 29.51 in 10.0 mi Calm Calm - N/A   Overcast
8:29 PM 35.6 °F - 33.8 °F 93% 29.51 in 10.0 mi Calm Calm - 0.00 in   Overcast
8:41 PM 35.6 °F - 33.8 °F 93% 29.51 in 10.0 mi Calm Calm - 0.00 in   Overcast
8:56 PM 35.6 °F - 33.8 °F 93% 29.51 in 8.0 mi Calm Calm - N/A Rain Light Rain
9:13 PM 35.6 °F - 33.8 °F 93% 29.51 in 10.0 mi Calm Calm - 0.00 in   Overcast
9:46 PM 35.6 °F - 33.8 °F 93% 29.52 in 10.0 mi Calm Calm - 0.00 in   Overcast
9:56 PM 34.0 °F - 34.0 °F 100% 29.53 in 10.0 mi Calm Calm - 0.00 in   Overcast
10:22 PM 33.8 °F - 33.8 °F 100% 29.53 in 10.0 mi Calm Calm - N/A   Overcast
10:56 PM 34.0 °F - 34.0 °F 100% 29.56 in 10.0 mi Calm Calm - 0.00 in Rain Light Rain
11:40 PM 33.8 °F - 33.8 °F 100% 29.56 in 6.0 mi Calm Calm - 0.00 in Rain Light Rain
11:56 PM 34.9 °F - 34.9 °F 100% 29.58 in 10.0 mi Calm Calm - 0.00 in   Overcast